Location: Cornospital
(48.0620°N, 3.3837°W)
Time: 16:17:45
(UTC+00:00)

Cosmos 1464 Rocket - Pass Details

Date: 17 June 2021
Orbit: 953 x 1001 km, 82.9° (Epoch: 31 July)

Event Time Altitude Azimuth Distance (km) Brightness Sun altitude
Rises 22:49:27 0° 354° (N) 3,717 8.6 -16.0°
Reaches altitude 10° 22:52:04 10° 359° (N) 2,770 7.5 -16.2°
Maximum altitude 22:58:15 51° 75° (ENE) 1,238 4.5 -16.5°
Enters shadow 23:02:08 23° 141° (SE) 1,986 5.1 -16.7°
